User: anonymous   Login
Location: ??
(35.5052°N, 139.7262°E)
Time: 21:43:26
(UTC+00:00)
Language:

Iridium 4 - Orbit

View from above orbital plane
View from above orbital plane
View from above satellite
View from above satellite

Ground track
Ground track

The orbit data is extracted from the following two-line orbital elements,

1 24796U 97020E   22022.29514534  .00000186  00000-0  57984-4 0  9999
2 24796  86.3983 334.3836 0002089  81.6141 278.5293 14.35334564294253
Epoch (UTC): 22 January 2022 07:05:00
Eccentricity: 0.0002089
inclination: 86.3983°
perigee height: 772 km
apogee height: 775 km
right ascension of ascending node: 334.3836°
argument of perigee: 81.6141°
revolutions per day: 14.35334564
mean anomaly at epoch: 278.5293°
orbit number at epoch: 29425

The dashed part of the orbit path shows where the satellite is in the earth's shadow,  

DLR